Weather History for KHJO - December, 2013

Change the Weather History Date:

Tuesday, December 24, 2013

  Actual Average Record
Temperature  
Mean Temperature 47 °F 44 °F  
Max Temperature 64 °F 53 °F 64 °F (2013)
Min Temperature 29 °F 35 °F 20 °F (1998)
Degree Days  
Heating Degree Days 18    
Month to date heating degree days 518  
Since 1 July heating degree days 898  
Cooling Degree Days 0    
Month to date cooling degree days 0  
Year to date cooling degree days 2057  
Moisture  
Dew Point 34 °F    
Average Humidity 67    
Maximum Humidity 100    
Minimum Humidity 34    
Precipitation  
Precipitation 0.00 in 0.07 in 0.12 in (2003)
Month to date precipitation 0.12 1.03  
Year to date precipitation 1.99 9.50  
Since 1 July precipitation 0.39 2.74  
Snow  
Snow 0.00 in - - ()
Month to date snowfall 0.0  
Since 1 July snowfall 0.0  
Snow Depth 0.00 in    
Sea Level Pressure  
Sea Level Pressure 30.31 in    
Wind  
Wind Speed 1 mph (SE)    
Max Wind Speed 6 mph    
Max Gust Speed 9 mph    
Visibility 3 miles    
Events      
T = Trace of Precipitation, MM = Missing Value Source: NWS Daily Summary

Daily Weather History Graph

Daily Weather History Graph

Search for Another Location

Airport or City:

Trip Planner

Search our weather history database for the weather conditions in past years. The results will help you decide how hot, cold, wet, or windy it might be!

Date:

Astronomy

Dec. 24, 2013 Rise Set
Actual Time 7:07 AM PST 4:49 PM PST
Civil Twilight 6:38 AM PST 5:17 PM PST
Nautical Twilight 6:06 AM PST 5:50 PM PST
Astronomical Twilight 5:35 AM PST 6:21 PM PST
Moon 11:50 PM PST (12/24) 11:15 AM PST (12/24)
Length of Visible Light 10h 38m
Length of Day
9h 41m
Waning Gibbous, 57% of the Moon is Illuminated
Dec 24
Waning Gibbous
Dec 25
Last Quarter
Jan 1
New
Jan 7
First Quarter
Jan 15
Full

Hourly Weather History & Observations

Time (PST) Temp. Windchill Dew Point Humidity Pressure Visibility Wind Dir Wind Speed Gust Speed Precip Events Conditions
12:53 AM 36.0 °F - 30.0 °F 79% 30.36 in 3.0 mi Calm Calm - N/A   Haze
1:53 AM 36.0 °F - 32.0 °F 86% 30.36 in 3.0 mi Calm Calm - N/A   Clear
2:53 AM 35.1 °F 32.2 °F 30.0 °F 82% 30.36 in 3.0 mi NW 3.5 mph - N/A   Haze
3:53 AM 35.1 °F - 30.0 °F 82% 30.36 in 3.0 mi Calm Calm - N/A   Haze
4:53 AM 34.0 °F - 28.9 °F 82% 30.35 in 4.0 mi Calm Calm - N/A   Haze
5:53 AM 30.0 °F - 26.1 °F 85% 30.35 in 2.5 mi Calm Calm - N/A   Clear
6:53 AM 30.9 °F - 30.0 °F 96% 30.36 in 2.0 mi Calm Calm - N/A   Clear
7:05 AM 32.0 °F - 28.9 °F 88% 30.35 in 1.8 mi Calm Calm - N/A   Clear
7:53 AM 33.1 °F - 30.0 °F 89% 30.36 in 1.8 mi Calm Calm - N/A   Clear
8:13 AM 34.0 °F 31.0 °F 30.0 °F 85% 30.35 in 2.0 mi East 3.5 mph - N/A   Clear
8:53 AM 37.9 °F 34.4 °F 32.0 °F 79% 30.37 in 2.5 mi ESE 4.6 mph - N/A   Haze
9:06 AM 39.9 °F 37.8 °F 33.1 °F 77% 30.36 in 3.0 mi East 3.5 mph - N/A   Haze
9:53 AM 45.0 °F - 35.1 °F 68% 30.37 in 3.0 mi Calm Calm - N/A   Haze
10:53 AM 52.0 °F - 36.0 °F 54% 30.35 in 3.0 mi Calm Calm - N/A   Haze
11:53 AM 55.9 °F - 36.0 °F 47% 30.31 in 4.0 mi Calm Calm - N/A   Haze
12:53 PM 60.1 °F - 36.0 °F 41% 30.28 in 4.0 mi Calm Calm - N/A   Haze
1:26 PM 61.0 °F - 36.0 °F 39% 30.25 in 1.8 mi WNW 3.5 mph - N/A   Haze
1:33 PM 62.1 °F - 36.0 °F 38% 30.25 in 2.5 mi North 5.8 mph - N/A   Haze
1:40 PM 62.1 °F - 37.0 °F 39% 30.25 in 4.0 mi NW 3.5 mph - N/A   Haze
1:53 PM 63.0 °F - 37.0 °F 38% 30.25 in 4.0 mi North 3.5 mph - N/A   Haze
2:53 PM 64.0 °F - 36.0 °F 35% 30.25 in 5.0 mi Calm Calm - N/A   Haze
3:53 PM 63.0 °F - 36.0 °F 37% 30.26 in 5.0 mi Calm Calm - N/A   Haze
4:53 PM 55.9 °F - 37.9 °F 51% 30.26 in 4.0 mi SE 3.5 mph - N/A   Haze
5:53 PM 52.0 °F - 37.9 °F 59% 30.27 in 5.0 mi Calm Calm - N/A   Haze
6:53 PM 46.9 °F - 37.0 °F 68% 30.26 in 4.0 mi South 3.5 mph - N/A   Haze
7:41 PM 44.1 °F 42.5 °F 36.0 °F 73% 30.25 in 2.5 mi South 3.5 mph - N/A   Haze
7:50 PM 44.6 °F 43.1 °F 37.4 °F 76% 30.25 in 4.0 mi SSW 3.5 mph - N/A   Haze
7:53 PM 44.1 °F 41.5 °F 36.0 °F 73% 30.27 in 4.0 mi SSW 4.6 mph - N/A   Haze
8:53 PM 43.0 °F - 36.0 °F 76% 30.27 in 3.0 mi Calm Calm - N/A   Haze
9:53 PM 37.9 °F 35.5 °F 33.1 °F 83% 30.29 in 3.0 mi East 3.5 mph - N/A   Haze
10:53 PM 37.9 °F - 33.1 °F 83% 30.30 in 3.0 mi Calm Calm - N/A   Haze
11:24 PM 37.9 °F - 33.1 °F 83% 30.29 in 2.5 mi Calm Calm - N/A   Haze
11:31 PM 37.9 °F - 34.0 °F 86% 30.29 in 3.0 mi Calm Calm - N/A   Clear
11:44 PM 37.0 °F - 33.1 °F 86% 30.29 in 2.5 mi Calm Calm - N/A   Clear
11:51 PM 39.2 °F - 33.8 °F 81% 30.29 in 3.0 mi Calm Calm - N/A   Haze
11:53 PM 39.0 °F - 34.0 °F 82% 30.30 in 3.0 mi Calm Calm - N/A   Haze